User: anonymous
Location: Unspecified
(0.0000°N, 0.0000°E)
Time: 22:24:03
(UTC+00:00)
Language:

RESURS DK-1 - Orbit

View from above orbital plane
View from above orbital plane
View from above satellite
View from above satellite

Ground track
Ground track

The orbit data is extracted from the following two-line orbital elements,

1 29228U 06021A   14232.45513752  .00000373  00000-0  36896-4 0  1504
2 29228 069.9357 200.9985 0003066 162.6013 336.0053 15.00758779453215
Epoch (UTC): 20 August 2014 10:55:23
Eccentricity: 0.0003066
inclination: 69.9357°
perigee height: 562 km
apogee height: 566 km
right ascension of ascending node: 200.9985°
argument of perigee: 162.6013°
revolutions per day: 15.00758779
mean anomaly at epoch: 336.0053°
orbit number at epoch: 45321

The dashed part of the orbit path shows where the satellite is in the earth's shadow,  

DLR